,,,PA_Meas_PMT16A,,PR_Meas_QMR101_102,,RH_Meas_QMH101,,SR_Meas_QMS101,,TA_Meas_QMH101,,GenWind,,GenWind,
date,time,status,PA,status,PR,status,RH,status,SR,status,TA,status,DirAvg,status,SpdAvg,
2009-03-17, 00:00:04,VALID,1009.29,VALID,0,VALID,88.5579,VALID,0.105969,VALID,23.7099,VALID,333,VALID,0,
2009-03-17, 00:01:04,VALID,1009.29,VALID,0,VALID,88.5579,VALID,0.105969,VALID,23.7099,VALID,333,VALID,0,
2009-03-17, 00:02:04,VALID,1009.29,VALID,0,VALID,88.5579,VALID,0.105969,VALID,23.6904,VALID,333,VALID,0,
2009-03-17, 00:03:04,VALID,1009.31,VALID,0,VALID,88.5426,VALID,0.105969,VALID,23.7312,VALID,333,VALID,0,
2009-03-17, 00:04:04,VALID,1009.3,VALID,0,VALID,88.5426,VALID,0.105969,VALID,23.7117,VALID,333,VALID,0,
2009-03-17, 00:05:04,VALID,1009.29,VALID,0,VALID,88.5426,VALID,0.105969,VALID,23.6904,VALID,333,VALID,0,
2009-03-17, 00:06:04,VALID,1009.24,VALID,0,VALID,88.5579,VALID,0.105969,VALID,23.7117,VALID,333,VALID,0,
2009-03-17, 00:07:04,VALID,1009.28,VALID,0,VALID,88.5426,VALID,0.105969,VALID,23.6727,VALID,333,VALID,0,
2009-03-17, 00:08:04,VALID,1009.28,VALID,0,VALID,88.5655,VALID,0.105969,VALID,23.6727,VALID,333,VALID,0,
2009-03-17, 00:09:04,VALID,1009.28,VALID,0,VALID,88.5579,VALID,0.105969,VALID,23.6727,VALID,333,VALID,0,
2009-03-17, 00:10:04,VALID,1009.28,VALID,0,VALID,88.5579,VALID,0,VALID,23.6727,VALID,333,VALID,0,
2009-03-17, 00:11:04,VALID,1009.29,VALID,0,VALID,88.5731,VALID,0,VALID,23.6532,VALID,333,VALID,0,
2009-03-17, 00:12:04,VALID,1009.29,VALID,0,VALID,88.5731,VALID,0.105969,VALID,23.6532,VALID,333,VALID,0,
2009-03-17, 00:13:04,VALID,1009.29,VALID,0,VALID,88.5655,VALID,0,VALID,23.655,VALID,333,VALID,0,
2009-03-17, 00:14:04,VALID,1009.28,VALID,0,VALID,88.5655,VALID,0,VALID,23.6338,VALID,333,VALID,0,
2009-03-17, 00:15:04,VALID,1009.26,VALID,0,VALID,88.5731,VALID,0,VALID,23.6356,VALID,333,VALID,0,
2009-03-17, 00:16:04,VALID,1009.24,VALID,0,VALID,88.596,VALID,0,VALID,23.655,VALID,333,VALID,0,
2009-03-17, 00:17:04,VALID,1009.23,VALID,0,VALID,88.5807,VALID,0,VALID,23.655,VALID,333,VALID,0,
2009-03-17, 00:18:04,VALID,1009.23,VALID,0,VALID,88.5731,VALID,0,VALID,23.6356,VALID,333,VALID,0,
2009-03-17, 00:19:04,VALID,1009.19,VALID,0,VALID,88.5731,VALID,0,VALID,23.655,VALID,333,VALID,0,
2009-03-17, 00:20:04,VALID,1009.23,VALID,0,VALID,88.5731,VALID,0,VALID,23.6161,VALID,333,VALID,0,
2009-03-17, 00:21:04,VALID,1009.2,VALID,0,VALID,88.596,VALID,0,VALID,23.6143,VALID,333,VALID,0,
2009-03-17, 00:22:04,VALID,1009.17,VALID,0,VALID,88.5884,VALID,0,VALID,23.6356,VALID,333,VALID,0,
2009-03-17, 00:23:04,VALID,1009.17,VALID,0,VALID,88.5807,VALID,0,VALID,23.6161,VALID,333,VALID,0,
2009-03-17, 00:24:04,VALID,1009.16,VALID,0,VALID,88.5807,VALID,0,VALID,23.6356,VALID,333,VALID,0,
2009-03-17, 00:25:04,VALID,1009.18,VALID,0,VALID,88.6113,VALID,0,VALID,23.5948,VALID,333,VALID,0,
2009-03-17, 00:26:04,VALID,1009.13,VALID,0,VALID,88.5884,VALID,0,VALID,23.6161,VALID,333,VALID,0,
2009-03-17, 00:27:04,VALID,1009.15,VALID,0,VALID,88.5884,VALID,0,VALID,23.5948,VALID,333,VALID,0,
2009-03-17, 00:28:04,VALID,1009.14,VALID,0,VALID,88.596,VALID,0,VALID,23.5948,VALID,333,VALID,0,
2009-03-17, 00:29:04,VALID,1009.12,VALID,0,VALID,88.5884,VALID,0,VALID,23.5948,VALID,333,VALID,0,
2009-03-17, 00:30:04,VALID,1009.11,VALID,0,VALID,88.596,VALID,0,VALID,23.6161,VALID,333,VALID,0,
2009-03-17, 00:31:04,VALID,1009.1,VALID,0,VALID,88.596,VALID,0,VALID,23.6161,VALID,333,VALID,0,
2009-03-17, 00:32:04,VALID,1009.05,VALID,0,VALID,88.5807,VALID,0,VALID,23.6356,VALID,333,VALID,0,
2009-03-17, 00:33:04,VALID,1009.03,VALID,0,VALID,88.596,VALID,0,VALID,23.6161,VALID,333,VALID,0,
2009-03-17, 00:34:04,VALID,1009,VALID,0,VALID,88.5884,VALID,0,VALID,23.5948,VALID,333,VALID,0,
2009-03-17, 00:35:04,VALID,1009,VALID,0,VALID,88.596,VALID,0,VALID,23.6161,VALID,333,VALID,0,
2009-03-17, 00:36:04,VALID,1009.02,VALID,0,VALID,88.5884,VALID,0,VALID,23.6161,VALID,333,VALID,0,
2009-03-17, 00:37:04,VALID,1009.06,VALID,0,VALID,88.5884,VALID,0,VALID,23.6161,VALID,333,VALID,0,
2009-03-17, 00:38:04,VALID,1009.04,VALID,0,VALID,88.6036,VALID,0,VALID,23.6161,VALID,333,VALID,0,
2009-03-17, 00:39:04,VALID,1009.02,VALID,0,VALID,88.5731,VALID,0,VALID,23.6161,VALID,333,VALID,0,
2009-03-17, 00:40:04,VALID,1009.04,VALID,0,VALID,88.5807,VALID,0,VALID,23.6356,VALID,333,VALID,0,
2009-03-17, 00:41:04,VALID,1009.03,VALID,0,VALID,88.5731,VALID,0,VALID,23.5948,VALID,333,VALID,0,
2009-03-17, 00:42:04,VALID,1009.03,VALID,0,VALID,88.5807,VALID,0,VALID,23.6143,VALID,333,VALID,0,
2009-03-17, 00:43:04,VALID,1009.02,VALID,0,VALID,88.596,VALID,0,VALID,23.5948,VALID,333,VALID,0,
2009-03-17, 00:44:04,VALID,1008.99,VALID,0,VALID,88.5731,VALID,0,VALID,23.6143,VALID,333,VALID,0,
2009-03-17, 00:45:04,VALID,1009,VALID,0,VALID,88.6036,VALID,0,VALID,23.5948,VALID,333,VALID,0,
2009-03-17, 00:46:04,VALID,1008.98,VALID,0,VALID,88.6036,VALID,0,VALID,23.5948,VALID,333,VALID,0,
2009-03-17, 00:47:04,VALID,1008.96,VALID,0,VALID,88.596,VALID,0,VALID,23.6161,VALID,333,VALID,0,
2009-03-17, 00:48:04,VALID,1008.94,VALID,0,VALID,88.6036,VALID,0,VALID,23.6356,VALID,333,VALID,0,
2009-03-17, 00:49:04,VALID,1008.93,VALID,0,VALID,88.5884,VALID,0,VALID,23.6356,VALID,333,VALID,0,
2009-03-17, 00:50:04,VALID,1008.92,VALID,0,VALID,88.596,VALID,0,VALID,23.6161,VALID,333,VALID,0,
2009-03-17, 00:51:04,VALID,1008.93,VALID,0,VALID,88.6036,VALID,0,VALID,23.6356,VALID,333,VALID,0,
2009-03-17, 00:52:04,VALID,1008.96,VALID,0,VALID,88.6036,VALID,0,VALID,23.6356,VALID,333,VALID,0,
2009-03-17, 00:53:04,VALID,1008.95,VALID,0,VALID,88.5731,VALID,0,VALID,23.6338,VALID,333,VALID,0,
2009-03-17, 00:54:04,VALID,1008.96,VALID,0,VALID,88.5884,VALID,0,VALID,23.6338,VALID,333,VALID,0,
2009-03-17, 00:55:04,VALID,1008.98,VALID,0,VALID,88.5884,VALID,0,VALID,23.6727,VALID,333,VALID,0,
2009-03-17, 00:56:04,VALID,1009,VALID,0,VALID,88.596,VALID,0,VALID,23.694,VALID,333,VALID,0,
2009-03-17, 00:57:04,VALID,1008.99,VALID,0,VALID,88.5884,VALID,0,VALID,23.6727,VALID,333,VALID,0,
2009-03-17, 00:58:04,VALID,1008.94,VALID,0,VALID,88.5884,VALID,0,VALID,23.6745,VALID,333,VALID,0,
2009-03-17, 00:59:04,VALID,1008.92,VALID,0,VALID,88.5807,VALID,0.105969,VALID,23.6727,VALID,333,VALID,0,
2009-03-17, 01:00:04,VALID,1008.93,VALID,0,VALID,88.6036,VALID,0,VALID,23.694,VALID,333,VALID,0,
2009-03-17, 01:01:04,VALID,1008.94,VALID,0,VALID,88.5655,VALID,0,VALID,23.694,VALID,333,VALID,0,
2009-03-17, 01:02:04,VALID,1008.93,VALID,0,VALID,88.5807,VALID,0,VALID,23.6532,VALID,333,VALID,0,
2009-03-17, 01:03:04,VALID,1008.93,VALID,0,VALID,88.5655,VALID,0,VALID,23.6532,VALID,333,VALID,0,
2009-03-17, 01:04:04,VALID,1008.94,VALID,0,VALID,88.5807,VALID,0,VALID,23.6338,VALID,333,VALID,0,
2009-03-17, 01:05:04,VALID,1008.94,VALID,0,VALID,88.5731,VALID,0,VALID,23.6356,VALID,333,VALID,0,
2009-03-17, 01:06:04,VALID,1008.94,VALID,0,VALID,88.596,VALID,0,VALID,23.6143,VALID,333,VALID,0,
2009-03-17, 01:07:04,VALID,1008.94,VALID,0,VALID,88.6036,VALID,0,VALID,23.5558,VALID,155,VALID,0,
2009-03-17, 01:08:04,VALID,1008.94,VALID,0,VALID,88.6113,VALID,0,VALID,23.5381,VALID,155,VALID,0,
2009-03-17, 01:09:04,VALID,1008.94,VALID,0,VALID,88.596,VALID,0,VALID,23.4974,VALID,155,VALID,0,
2009-03-17, 01:10:04,VALID,1008.92,VALID,0,VALID,88.6189,VALID,0,VALID,23.5186,VALID,158,VALID,0,
2009-03-17, 01:11:04,VALID,1008.89,VALID,0,VALID,88.6113,VALID,0.105969,VALID,23.4974,VALID,160,VALID,0,
2009-03-17, 01:12:04,VALID,1008.86,VALID,0,VALID,88.6189,VALID,0,VALID,23.5381,VALID,160,VALID,0,
2009-03-17, 01:13:04,VALID,1008.85,VALID,0,VALID,88.596,VALID,0,VALID,23.5169,VALID,160,VALID,0,
2009-03-17, 01:14:04,VALID,1008.82,VALID,0,VALID,88.6036,VALID,0,VALID,23.5576,VALID,160,VALID,0,
2009-03-17, 01:15:04,VALID,1008.83,VALID,0,VALID,88.6189,VALID,0.105969,VALID,23.5558,VALID,160,VALID,0,
2009-03-17, 01:16:04,VALID,1008.83,VALID,0,VALID,88.6036,VALID,0,VALID,23.5771,VALID,160,VALID,0,
2009-03-17, 01:17:04,VALID,1008.82,VALID,0,VALID,88.6036,VALID,0,VALID,23.5753,VALID,160,VALID,0,
2009-03-17, 01:18:04,VALID,1008.81,VALID,0,VALID,88.596,VALID,0,VALID,23.5753,VALID,159,VALID,0,
2009-03-17, 01:19:04,VALID,1008.82,VALID,0,VALID,88.6036,VALID,0,VALID,23.5753,VALID,137,VALID,0.525,
2009-03-17, 01:20:04,VALID,1008.84,VALID,0,VALID,88.596,VALID,0,VALID,23.5966,VALID,137,VALID,0.345703,
2009-03-17, 01:21:04,VALID,1008.86,VALID,0,VALID,88.596,VALID,0,VALID,23.5753,VALID,137,VALID,0.00976563,
2009-03-17, 01:22:04,VALID,1008.84,VALID,0,VALID,88.5807,VALID,0,VALID,23.5771,VALID,137,VALID,0.203516,
2009-03-17, 01:23:04,VALID,1008.84,VALID,0,VALID,88.596,VALID,0,VALID,23.6161,VALID,137,VALID,0,
2009-03-17, 01:24:04,VALID,1008.83,VALID,0,VALID,88.5884,VALID,0,VALID,23.5948,VALID,137,VALID,0,
2009-03-17, 01:25:04,VALID,1008.82,VALID,0,VALID,88.5655,VALID,0.105969,VALID,23.5948,VALID,137,VALID,0,
2009-03-17, 01:26:04,VALID,1008.8,VALID,0,VALID,88.5884,VALID,0,VALID,23.6143,VALID,137,VALID,0,
2009-03-17, 01:27:04,VALID,1008.78,VALID,0,VALID,88.5884,VALID,0,VALID,23.6338,VALID,137,VALID,0,
2009-03-17, 01:28:04,VALID,1008.74,VALID,0,VALID,88.5655,VALID,0,VALID,23.6143,VALID,70,VALID,0,
2009-03-17, 01:29:04,VALID,1008.71,VALID,0,VALID,88.596,VALID,0,VALID,23.6143,VALID,62,VALID,0,
2009-03-17, 01:30:04,VALID,1008.73,VALID,0,VALID,88.5655,VALID,0,VALID,23.6532,VALID,62,VALID,0,
2009-03-17, 01:31:04,VALID,1008.71,VALID,0,VALID,88.5579,VALID,0,VALID,23.655,VALID,62,VALID,0,
2009-03-17, 01:32:04,VALID,1008.69,VALID,0,VALID,88.5807,VALID,0,VALID,23.6338,VALID,62,VALID,0,
2009-03-17, 01:33:04,VALID,1008.72,VALID,0,VALID,88.5502,VALID,0,VALID,23.6356,VALID,62,VALID,0,
2009-03-17, 01:34:04,VALID,1008.66,VALID,0,VALID,88.5579,VALID,0,VALID,23.6356,VALID,62,VALID,0,
2009-03-17, 01:35:04,VALID,1008.66,VALID,0,VALID,88.5655,VALID,0,VALID,23.655,VALID,62,VALID,0,
2009-03-17, 01:36:04,VALID,1008.64,VALID,0,VALID,88.5731,VALID,0,VALID,23.655,VALID,62,VALID,0,
2009-03-17, 01:37:04,VALID,1008.62,VALID,0,VALID,88.5502,VALID,0,VALID,23.6338,VALID,62,VALID,0,
2009-03-17, 01:38:04,VALID,1008.6,VALID,0,VALID,88.5579,VALID,0,VALID,23.6356,VALID,62,VALID,0,
2009-03-17, 01:39:04,VALID,1008.59,VALID,0,VALID,88.5502,VALID,0,VALID,23.655,VALID,63,VALID,0,
2009-03-17, 01:40:04,VALID,1008.58,VALID,0,VALID,88.5579,VALID,0,VALID,23.655,VALID,150,VALID,0,
2009-03-17, 01:41:04,VALID,1008.6,VALID,0,VALID,88.5502,VALID,0,VALID,23.655,VALID,150,VALID,0,
2009-03-17, 01:42:04,VALID,1008.57,VALID,0,VALID,88.5426,VALID,0,VALID,23.6338,VALID,150,VALID,0,
2009-03-17, 01:43:04,VALID,1008.58,VALID,0,VALID,88.5426,VALID,0,VALID,23.6356,VALID,150,VALID,0,
2009-03-17, 01:44:04,VALID,1008.55,VALID,0,VALID,88.5655,VALID,0,VALID,23.6356,VALID,150,VALID,0,
2009-03-17, 01:45:04,VALID,1008.53,VALID,0,VALID,88.535,VALID,0,VALID,23.6356,VALID,150,VALID,0,
2009-03-17, 01:46:04,VALID,1008.51,VALID,0,VALID,88.5502,VALID,0.105969,VALID,23.6161,VALID,150,VALID,0,
2009-03-17, 01:47:04,VALID,1008.48,VALID,0,VALID,88.5731,VALID,0,VALID,23.6356,VALID,150,VALID,0,
2009-03-17, 01:48:04,VALID,1008.46,VALID,0,VALID,88.5655,VALID,0,VALID,23.6161,VALID,150,VALID,0,
2009-03-17, 01:49:04,VALID,1008.48,VALID,0,VALID,88.5502,VALID,0,VALID,23.6161,VALID,150,VALID,0,
2009-03-17, 01:50:04,VALID,1008.43,VALID,0,VALID,88.535,VALID,0,VALID,23.6356,VALID,150,VALID,0,
2009-03-17, 01:51:04,VALID,1008.41,VALID,0,VALID,88.5579,VALID,0,VALID,23.5948,VALID,150,VALID,0,
2009-03-17, 01:52:04,VALID,1008.39,VALID,0,VALID,88.535,VALID,0,VALID,23.6161,VALID,150,VALID,0,
2009-03-17, 01:53:04,VALID,1008.36,VALID,0,VALID,88.5579,VALID,0,VALID,23.6356,VALID,150,VALID,0,
2009-03-17, 01:54:04,VALID,1008.35,VALID,0,VALID,88.5426,VALID,0,VALID,23.6356,VALID,150,VALID,0,
2009-03-17, 01:55:04,VALID,1008.36,VALID,0,VALID,88.5502,VALID,0,VALID,23.655,VALID,142,VALID,0,
2009-03-17, 01:56:04,VALID,1008.35,VALID,0,VALID,88.5426,VALID,0,VALID,23.655,VALID,142,VALID,0,
2009-03-17, 01:57:04,VALID,1008.38,VALID,0,VALID,88.535,VALID,0,VALID,23.655,VALID,142,VALID,0,
2009-03-17, 01:58:04,VALID,1008.39,VALID,0,VALID,88.5426,VALID,0,VALID,23.655,VALID,142,VALID,0,
2009-03-17, 01:59:04,VALID,1008.39,VALID,0,VALID,88.5655,VALID,0,VALID,23.655,VALID,142,VALID,0,
2009-03-17, 02:00:04,VALID,1008.4,VALID,0,VALID,88.5579,VALID,0,VALID,23.655,VALID,142,VALID,0,
2009-03-17, 02:01:04,VALID,1008.4,VALID,0,VALID,88.5197,VALID,0,VALID,23.655,VALID,142,VALID,0,
2009-03-17, 02:02:04,VALID,1008.4,VALID,0,VALID,88.535,VALID,0,VALID,23.655,VALID,122,VALID,0,
2009-03-17, 02:03:04,VALID,1008.4,VALID,0,VALID,88.535,VALID,0,VALID,23.6532,VALID,99,VALID,0,
2009-03-17, 02:04:04,VALID,1008.42,VALID,0,VALID,88.5274,VALID,0,VALID,23.655,VALID,99,VALID,0,
2009-03-17, 02:05:04,VALID,1008.43,VALID,0,VALID,88.5274,VALID,0,VALID,23.6338,VALID,98,VALID,0,
2009-03-17, 02:06:04,VALID,1008.43,VALID,0,VALID,88.5274,VALID,0,VALID,23.6356,VALID,83,VALID,0,
2009-03-17, 02:07:04,VALID,1008.43,VALID,0,VALID,88.5502,VALID,0,VALID,23.6356,VALID,81,VALID,0,
2009-03-17, 02:08:04,VALID,1008.41,VALID,0,VALID,88.535,VALID,0,VALID,23.6356,VALID,87,VALID,0.481641,
2009-03-17, 02:09:04,VALID,1008.42,VALID,0,VALID,88.5197,VALID,0,VALID,23.6161,VALID,78,VALID,0.596484,
2009-03-17, 02:10:04,VALID,1008.4,VALID,0,VALID,88.535,VALID,0,VALID,23.5753,VALID,78,VALID,0.298047,
2009-03-17, 02:11:04,VALID,1008.41,VALID,0,VALID,88.5426,VALID,0,VALID,23.5966,VALID,68,VALID,0.292969,
2009-03-17, 02:12:04,VALID,1008.39,VALID,0,VALID,88.5274,VALID,0,VALID,23.5966,VALID,72,VALID,0.307813,
2009-03-17, 02:13:04,VALID,1008.39,VALID,0,VALID,88.535,VALID,0,VALID,23.5753,VALID,45,VALID,0.388672,
2009-03-17, 02:14:04,VALID,1008.38,VALID,0,VALID,88.5121,VALID,0,VALID,23.5771,VALID,42,VALID,0,
2009-03-17, 02:15:04,VALID,1008.38,VALID,0,VALID,88.5426,VALID,0,VALID,23.5576,VALID,65,VALID,0,
2009-03-17, 02:16:04,VALID,1008.4,VALID,0,VALID,88.5426,VALID,0,VALID,23.5576,VALID,65,VALID,0,
2009-03-17, 02:17:04,VALID,1008.37,VALID,0,VALID,88.5426,VALID,0,VALID,23.5381,VALID,85,VALID,0,
2009-03-17, 02:18:04,VALID,1008.37,VALID,0,VALID,88.5274,VALID,0,VALID,23.5381,VALID,85,VALID,0,
2009-03-17, 02:19:04,VALID,1008.33,VALID,0,VALID,88.5426,VALID,0,VALID,23.5381,VALID,55,VALID,0.373437,
2009-03-17, 02:20:04,VALID,1008.38,VALID,0,VALID,88.5426,VALID,0,VALID,23.5186,VALID,55,VALID,0.326172,
2009-03-17, 02:21:04,VALID,1008.37,VALID,0,VALID,88.5502,VALID,0,VALID,23.5186,VALID,55,VALID,0,
2009-03-17, 02:22:04,VALID,1008.36,VALID,0,VALID,88.5426,VALID,0,VALID,23.5381,VALID,55,VALID,0.413281,
2009-03-17, 02:23:04,VALID,1008.36,VALID,0,VALID,88.5197,VALID,0,VALID,23.5186,VALID,55,VALID,0.196484,
2009-03-17, 02:24:04,VALID,1008.36,VALID,0,VALID,88.535,VALID,0,VALID,23.4992,VALID,64,VALID,0.566406,
2009-03-17, 02:25:04,VALID,1008.33,VALID,0,VALID,88.5426,VALID,0,VALID,23.4779,VALID,77,VALID,0.298047,
2009-03-17, 02:26:04,VALID,1008.31,VALID,0,VALID,88.5426,VALID,0,VALID,23.4992,VALID,77,VALID,0.515234,
2009-03-17, 02:27:04,VALID,1008.29,VALID,0,VALID,88.5426,VALID,0,VALID,23.4992,VALID,70,VALID,0.157422,
2009-03-17, 02:28:04,VALID,1008.3,VALID,0,VALID,88.5502,VALID,0,VALID,23.4992,VALID,70,VALID,0,
2009-03-17, 02:29:04,VALID,1008.28,VALID,0,VALID,88.5579,VALID,0,VALID,23.4992,VALID,70,VALID,0,
2009-03-17, 02:30:04,VALID,1008.26,VALID,0,VALID,88.5502,VALID,0,VALID,23.4797,VALID,64,VALID,0,
2009-03-17, 02:31:04,VALID,1008.25,VALID,0,VALID,88.5502,VALID,0,VALID,23.4797,VALID,63,VALID,0,
2009-03-17, 02:32:04,VALID,1008.28,VALID,0,VALID,88.5502,VALID,0,VALID,23.4992,VALID,63,VALID,0,
2009-03-17, 02:33:04,VALID,1008.27,VALID,0,VALID,88.5502,VALID,0,VALID,23.5186,VALID,63,VALID,0,
2009-03-17, 02:34:04,VALID,1008.27,VALID,0,VALID,88.5579,VALID,0,VALID,23.4992,VALID,63,VALID,0,
2009-03-17, 02:35:04,VALID,1008.28,VALID,0,VALID,88.5579,VALID,0,VALID,23.4992,VALID,63,VALID,0,
2009-03-17, 02:36:04,VALID,1008.32,VALID,0,VALID,88.5502,VALID,0,VALID,23.5186,VALID,63,VALID,0,
2009-03-17, 02:37:04,VALID,1008.3,VALID,0,VALID,88.535,VALID,0,VALID,23.4992,VALID,63,VALID,0,
2009-03-17, 02:38:04,VALID,1008.32,VALID,0,VALID,88.535,VALID,0,VALID,23.5186,VALID,63,VALID,0,
2009-03-17, 02:39:04,VALID,1008.34,VALID,0,VALID,88.5502,VALID,0,VALID,23.5186,VALID,63,VALID,0,
2009-03-17, 02:40:04,VALID,1008.35,VALID,0,VALID,88.5197,VALID,0,VALID,23.5186,VALID,63,VALID,0,
2009-03-17, 02:41:04,VALID,1008.35,VALID,0,VALID,88.5274,VALID,0,VALID,23.5186,VALID,63,VALID,0,
2009-03-17, 02:42:04,VALID,1008.35,VALID,0,VALID,88.5197,VALID,0,VALID,23.5186,VALID,63,VALID,0,
2009-03-17, 02:43:04,VALID,1008.38,VALID,0,VALID,88.5121,VALID,0,VALID,23.5381,VALID,63,VALID,0,
2009-03-17, 02:44:04,VALID,1008.36,VALID,0,VALID,88.5197,VALID,0,VALID,23.5186,VALID,63,VALID,0,
2009-03-17, 02:45:04,VALID,1008.37,VALID,0,VALID,88.5197,VALID,0,VALID,23.5186,VALID,63,VALID,0,
2009-03-17, 02:46:04,VALID,1008.37,VALID,0,VALID,88.5274,VALID,0,VALID,23.5186,VALID,63,VALID,0,
2009-03-17, 02:47:04,VALID,1008.38,VALID,0,VALID,88.5197,VALID,0,VALID,23.4992,VALID,63,VALID,0,
2009-03-17, 02:48:04,VALID,1008.39,VALID,0,VALID,88.535,VALID,0,VALID,23.4992,VALID,63,VALID,0,
2009-03-17, 02:49:04,VALID,1008.43,VALID,0,VALID,88.5121,VALID,0,VALID,23.4992,VALID,63,VALID,0,
2009-03-17, 02:50:04,VALID,1008.43,VALID,0,VALID,88.535,VALID,0,VALID,23.5186,VALID,63,VALID,0,
2009-03-17, 02:51:04,VALID,1008.45,VALID,0,VALID,88.5197,VALID,0,VALID,23.5186,VALID,63,VALID,0,
2009-03-17, 02:52:04,VALID,1008.44,VALID,0,VALID,88.5121,VALID,0,VALID,23.5186,VALID,63,VALID,0,
2009-03-17, 02:53:04,VALID,1008.42,VALID,0,VALID,88.5121,VALID,0,VALID,23.5381,VALID,63,VALID,0,
2009-03-17, 02:54:04,VALID,1008.41,VALID,0,VALID,88.5121,VALID,0,VALID,23.5594,VALID,63,VALID,0,
2009-03-17, 02:55:04,VALID,1008.41,VALID,0,VALID,88.4892,VALID,0,VALID,23.5381,VALID,63,VALID,0,
2009-03-17, 02:56:04,VALID,1008.42,VALID,0,VALID,88.4969,VALID,0,VALID,23.5381,VALID,63,VALID,0,
2009-03-17, 02:57:04,VALID,1008.44,VALID,0,VALID,88.4969,VALID,0,VALID,23.5576,VALID,63,VALID,0,
2009-03-17, 02:58:04,VALID,1008.44,VALID,0,VALID,88.4816,VALID,0,VALID,23.5576,VALID,63,VALID,0,
2009-03-17, 02:59:04,VALID,1008.41,VALID,0,VALID,88.4816,VALID,0,VALID,23.5381,VALID,63,VALID,0,
2009-03-17, 03:00:04,VALID,1008.4,VALID,0,VALID,88.474,VALID,0,VALID,23.5771,VALID,63,VALID,0,
2009-03-17, 03:01:04,VALID,1008.41,VALID,0,VALID,88.4892,VALID,0,VALID,23.5966,VALID,63,VALID,0,
2009-03-17, 03:02:04,VALID,1008.43,VALID,0,VALID,88.4892,VALID,0,VALID,23.5771,VALID,63,VALID,0,
2009-03-17, 03:03:04,VALID,1008.43,VALID,0,VALID,88.4587,VALID,0,VALID,23.5771,VALID,63,VALID,0,
2009-03-17, 03:04:04,VALID,1008.45,VALID,0,VALID,88.4664,VALID,0,VALID,23.5771,VALID,63,VALID,0,
2009-03-17, 03:05:04,VALID,1008.46,VALID,0,VALID,88.4587,VALID,0,VALID,23.5966,VALID,63,VALID,0,
2009-03-17, 03:06:04,VALID,1008.44,VALID,0,VALID,88.4587,VALID,0,VALID,23.6161,VALID,63,VALID,0,
2009-03-17, 03:07:04,VALID,1008.43,VALID,0,VALID,88.4587,VALID,0,VALID,23.5966,VALID,63,VALID,0,
2009-03-17, 03:08:04,VALID,1008.42,VALID,0,VALID,88.4511,VALID,0,VALID,23.5966,VALID,63,VALID,0,
2009-03-17, 03:09:04,VALID,1008.45,VALID,0,VALID,88.4511,VALID,0,VALID,23.5966,VALID,63,VALID,0,
2009-03-17, 03:10:04,VALID,1008.41,VALID,0,VALID,88.4664,VALID,0,VALID,23.5966,VALID,63,VALID,0,
2009-03-17, 03:11:04,VALID,1008.41,VALID,0,VALID,88.4435,VALID,0,VALID,23.5966,VALID,63,VALID,0,
2009-03-17, 03:12:04,VALID,1008.38,VALID,0,VALID,88.4435,VALID,0,VALID,23.5771,VALID,63,VALID,0,
2009-03-17, 03:13:04,VALID,1008.4,VALID,0,VALID,88.4435,VALID,0,VALID,23.5966,VALID,63,VALID,0,
2009-03-17, 03:14:04,VALID,1008.4,VALID,0,VALID,88.4435,VALID,0,VALID,23.6161,VALID,63,VALID,0,
2009-03-17, 03:15:04,VALID,1008.39,VALID,0,VALID,88.4359,VALID,0,VALID,23.6161,VALID,63,VALID,0,
2009-03-17, 03:16:04,VALID,1008.4,VALID,0,VALID,88.4359,VALID,0,VALID,23.6161,VALID,63,VALID,0,
2009-03-17, 03:17:04,VALID,1008.38,VALID,0,VALID,88.4282,VALID,0,VALID,23.6373,VALID,63,VALID,0,
2009-03-17, 03:18:04,VALID,1008.37,VALID,0,VALID,88.4359,VALID,0,VALID,23.6161,VALID,63,VALID,0,
2009-03-17, 03:19:04,VALID,1008.36,VALID,0,VALID,88.4282,VALID,0,VALID,23.6161,VALID,63,VALID,0,
2009-03-17, 03:20:04,VALID,1008.37,VALID,0,VALID,88.4359,VALID,0,VALID,23.6161,VALID,63,VALID,0,
2009-03-17, 03:21:04,VALID,1008.39,VALID,0,VALID,88.4282,VALID,0,VALID,23.6161,VALID,63,VALID,0,
2009-03-17, 03:22:04,VALID,1008.41,VALID,0,VALID,88.4359,VALID,0,VALID,23.5966,VALID,63,VALID,0,
2009-03-17, 03:23:04,VALID,1008.42,VALID,0,VALID,88.4359,VALID,0,VALID,23.5771,VALID,63,VALID,0,
2009-03-17, 03:24:04,VALID,1008.4,VALID,0,VALID,88.4511,VALID,0,VALID,23.5771,VALID,63,VALID,0,
2009-03-17, 03:25:04,VALID,1008.43,VALID,0,VALID,88.4435,VALID,0,VALID,23.5771,VALID,63,VALID,0,
2009-03-17, 03:26:04,VALID,1008.42,VALID,0,VALID,88.4054,VALID,0,VALID,23.5966,VALID,63,VALID,0,
2009-03-17, 03:27:04,VALID,1008.4,VALID,0,VALID,88.4206,VALID,0,VALID,23.5771,VALID,63,VALID,0,
2009-03-17, 03:28:04,VALID,1008.4,VALID,0,VALID,88.4282,VALID,0,VALID,23.5771,VALID,63,VALID,0,
2009-03-17, 03:29:04,VALID,1008.4,VALID,0,VALID,88.4359,VALID,0,VALID,23.5558,VALID,63,VALID,0,
2009-03-17, 03:30:04,VALID,1008.39,VALID,0,VALID,88.4206,VALID,0,VALID,23.5576,VALID,63,VALID,0,
2009-03-17, 03:31:04,VALID,1008.39,VALID,0,VALID,88.4359,VALID,0,VALID,23.5381,VALID,63,VALID,0,
2009-03-17, 03:32:04,VALID,1008.42,VALID,0,VALID,88.4206,VALID,0,VALID,23.5576,VALID,63,VALID,0,
2009-03-17, 03:33:04,VALID,1008.38,VALID,0,VALID,88.4435,VALID,0,VALID,23.5381,VALID,63,VALID,0,
2009-03-17, 03:34:04,VALID,1008.4,VALID,0,VALID,88.4282,VALID,0,VALID,23.5381,VALID,63,VALID,0,
2009-03-17, 03:35:04,VALID,1008.37,VALID,0,VALID,88.4435,VALID,0,VALID,23.5186,VALID,63,VALID,0,
2009-03-17, 03:36:04,VALID,1008.38,VALID,0,VALID,88.4511,VALID,0,VALID,23.5186,VALID,63,VALID,0,
2009-03-17, 03:37:04,VALID,1008.41,VALID,0,VALID,88.474,VALID,0,VALID,23.4992,VALID,63,VALID,0,
2009-03-17, 03:38:04,VALID,1008.41,VALID,0,VALID,88.4435,VALID,0,VALID,23.5186,VALID,63,VALID,0,
2009-03-17, 03:39:04,VALID,1008.39,VALID,0,VALID,88.474,VALID,0.105969,VALID,23.4974,VALID,63,VALID,0,
2009-03-17, 03:40:04,VALID,1008.41,VALID,0,VALID,88.4511,VALID,0,VALID,23.4992,VALID,63,VALID,0,
2009-03-17, 03:41:04,VALID,1008.42,VALID,0,VALID,88.4587,VALID,0,VALID,23.4797,VALID,63,VALID,0,
2009-03-17, 03:42:04,VALID,1008.45,VALID,0,VALID,88.4587,VALID,0,VALID,23.4797,VALID,63,VALID,0,
2009-03-17, 03:43:04,VALID,1008.46,VALID,0,VALID,88.4587,VALID,0,VALID,23.4992,VALID,63,VALID,0,
2009-03-17, 03:44:04,VALID,1008.49,VALID,0,VALID,88.4587,VALID,0,VALID,23.4797,VALID,63,VALID,0,
2009-03-17, 03:45:04,VALID,1008.48,VALID,0,VALID,88.4664,VALID,0,VALID,23.4584,VALID,63,VALID,0,
2009-03-17, 03:46:04,VALID,1008.47,VALID,0,VALID,88.4587,VALID,0,VALID,23.4779,VALID,63,VALID,0,
2009-03-17, 03:47:04,VALID,1008.5,VALID,0,VALID,88.4664,VALID,0,VALID,23.4992,VALID,63,VALID,0,
2009-03-17, 03:48:04,VALID,1008.5,VALID,0,VALID,88.4359,VALID,0,VALID,23.4779,VALID,63,VALID,0,
2009-03-17, 03:49:04,VALID,1008.5,VALID,0,VALID,88.4511,VALID,0,VALID,23.4992,VALID,63,VALID,0,
2009-03-17, 03:50:04,VALID,1008.54,VALID,0,VALID,88.4359,VALID,0,VALID,23.4992,VALID,63,VALID,0,
2009-03-17, 03:51:04,VALID,1008.51,VALID,0,VALID,88.4282,VALID,0,VALID,23.4992,VALID,63,VALID,0,
2009-03-17, 03:52:04,VALID,1008.53,VALID,0,VALID,88.4206,VALID,0,VALID,23.4992,VALID,63,VALID,0,
2009-03-17, 03:53:04,VALID,1008.51,VALID,0,VALID,88.4511,VALID,0,VALID,23.4992,VALID,63,VALID,0,
2009-03-17, 03:54:04,VALID,1008.52,VALID,0,VALID,88.4587,VALID,0,VALID,23.4992,VALID,63,VALID,0,
2009-03-17, 03:55:04,VALID,1008.53,VALID,0,VALID,88.4435,VALID,0,VALID,23.4797,VALID,63,VALID,0,
2009-03-17, 03:56:04,VALID,1008.51,VALID,0,VALID,88.4206,VALID,0,VALID,23.4797,VALID,63,VALID,0,
2009-03-17, 03:57:04,VALID,1008.49,VALID,0,VALID,88.4435,VALID,0,VALID,23.5009,VALID,63,VALID,0,
2009-03-17, 03:58:04,VALID,1008.49,VALID,0,VALID,88.4206,VALID,0.105969,VALID,23.4779,VALID,63,VALID,0,
2009-03-17, 03:59:04,VALID,1008.5,VALID,0,VALID,88.4206,VALID,0.105969,VALID,23.4779,VALID,63,VALID,0,